VLG8TM LEPA-LEGR

Flight info

Callsign VLG8TM
Flight time 1h 11m
Altitude 30000
Route BAVER DCT GERVU DCT ALT DCT RESTU DCT DOSEK DCT AMR/N0444F380 DCT ESILA DCT UNTOS N865 VIBAS
Aircraft A320/M-SDE3FGHIRWY/LB1

Departure

Time 2026-04-12 10:02
Airport Palma de Mallorca Airport (LEPA)

Arrival

Time 2026-04-12 11:13
Airport F.G.L. Airport Granada-Jaén Airport (LEGR)
Time Latitude Longitude Altitude Speed Heading
2026-04-12 09:44 39.54506 2.73228 30 ft 0 kts 347°
2026-04-12 09:55 39.54503 2.73228 30 ft 2 kts 346°
2026-04-12 09:55 39.54480 2.73240 30 ft 4 kts 319°
2026-04-12 09:55 39.54468 2.73264 30 ft 4 kts 249°
2026-04-12 09:56 39.54472 2.73276 30 ft 1 kts 238°
2026-04-12 09:58 39.54469 2.73270 30 ft 4 kts 238°
2026-04-12 09:58 39.54448 2.73226 30 ft 7 kts 236°
2026-04-12 09:59 39.54400 2.73215 30 ft 8 kts 147°
2026-04-12 09:59 39.54356 2.73203 30 ft 10 kts 224°
2026-04-12 09:59 39.54304 2.73102 30 ft 15 kts 238°
2026-04-12 09:59 39.54237 2.73066 30 ft 11 kts 146°
2026-04-12 10:00 39.54225 2.73142 30 ft 9 kts 97°
2026-04-12 10:00 39.54216 2.73232 30 ft 11 kts 97°
2026-04-12 10:00 39.54207 2.73330 30 ft 10 kts 91°
2026-04-12 10:00 39.54228 2.73384 30 ft 1 kts 57°
2026-04-12 10:01 39.54235 2.73399 30 ft 16 kts 57°
2026-04-12 10:01 39.54433 2.73817 30 ft 89 kts 58°
2026-04-12 10:01 39.54854 2.74711 43 ft 140 kts 59°
2026-04-12 10:02 39.55378 2.75836 650 ft 148 kts 59°
2026-04-12 10:02 39.55894 2.76964 1504 ft 145 kts 56°
2026-04-12 10:02 39.56420 2.78112 2158 ft 155 kts 57°
2026-04-12 10:02 39.56997 2.79372 2509 ft 176 kts 58°
2026-04-12 10:03 39.57665 2.80833 3040 ft 190 kts 59°
2026-04-12 10:03 39.58341 2.82317 3895 ft 191 kts 60°
2026-04-12 10:03 39.59015 2.83804 4760 ft 193 kts 60°
2026-04-12 10:03 39.59705 2.85320 5539 ft 197 kts 61°
2026-04-12 10:04 39.60419 2.86886 5986 ft 204 kts 61°
2026-04-12 10:04 39.61153 2.88487 6826 ft 206 kts 62°
2026-04-12 10:04 39.61883 2.90082 7737 ft 207 kts 63°
2026-04-12 10:04 39.62718 2.91629 8552 ft 216 kts 47°
2026-04-12 10:05 39.64076 2.92587 9369 ft 235 kts 19°
2026-04-12 10:05 39.65760 2.92425 10072 ft 258 kts 342°
2026-04-12 10:05 39.67180 2.90912 10775 ft 276 kts 304°
2026-04-12 10:05 39.67855 2.88559 11530 ft 282 kts 281°
2026-04-12 10:06 39.68118 2.86064 12350 ft 283 kts 273°
2026-04-12 10:06 39.68233 2.83500 13175 ft 286 kts 270°
2026-04-12 10:06 39.68313 2.80912 13983 ft 288 kts 270°
2026-04-12 10:06 39.68412 2.78300 14726 ft 291 kts 271°
2026-04-12 10:07 39.68546 2.75669 15505 ft 294 kts 274°
2026-04-12 10:07 39.69036 2.73048 15999 ft 310 kts 298°
2026-04-12 10:07 39.70188 2.70563 16194 ft 333 kts 301°
2026-04-12 10:07 39.71290 2.67793 16376 ft 357 kts 295°
2026-04-12 10:08 39.72321 2.64746 16538 ft 378 kts 292°
2026-04-12 10:08 39.73323 2.61540 17020 ft 387 kts 291°
2026-04-12 10:08 39.74330 2.58270 17639 ft 391 kts 291°
2026-04-12 10:08 39.75362 2.54976 18299 ft 395 kts 292°
2026-04-12 10:09 39.76424 2.51670 18891 ft 398 kts 292°
2026-04-12 10:09 39.77517 2.48343 19508 ft 400 kts 293°
2026-04-12 10:09 39.78625 2.45018 20132 ft 402 kts 293°
2026-04-12 10:09 39.79746 2.41676 20733 ft 404 kts 293°
2026-04-12 10:10 39.80634 2.38208 21335 ft 406 kts 281°
2026-04-12 10:10 39.80925 2.34558 21907 ft 407 kts 268°
2026-04-12 10:10 39.80602 2.30909 22473 ft 407 kts 255°
2026-04-12 10:10 39.79696 2.27430 23033 ft 408 kts 243°
2026-04-12 10:11 39.78248 2.24269 23540 ft 408 kts 232°
2026-04-12 10:11 39.76566 2.21281 23982 ft 411 kts 232°
2026-04-12 10:11 39.74872 2.18276 24446 ft 413 kts 232°
2026-04-12 10:11 39.73173 2.15261 24898 ft 415 kts 232°
2026-04-12 10:12 39.71459 2.12221 25351 ft 417 kts 232°
2026-04-12 10:12 39.69762 2.09212 25781 ft 419 kts 232°
2026-04-12 10:12 39.68037 2.06154 26225 ft 421 kts 232°
2026-04-12 10:12 39.66304 2.03081 26659 ft 423 kts 232°
2026-04-12 10:13 39.64559 1.99996 27083 ft 425 kts 232°
2026-04-12 10:13 39.62803 1.96899 27493 ft 427 kts 232°
2026-04-12 10:13 39.61038 1.93788 27915 ft 430 kts 232°
2026-04-12 10:13 39.59262 1.90656 28316 ft 432 kts 232°
2026-04-12 10:14 39.57477 1.87514 28705 ft 434 kts 231°
2026-04-12 10:14 39.55676 1.84347 29090 ft 437 kts 232°
2026-04-12 10:14 39.53867 1.81169 29469 ft 440 kts 232°
2026-04-12 10:14 39.52045 1.77972 29842 ft 442 kts 232°
2026-04-12 10:15 39.50215 1.74762 30167 ft 444 kts 232°
2026-04-12 10:15 39.48373 1.71541 30481 ft 446 kts 231°
2026-04-12 10:15 39.46523 1.68309 30756 ft 447 kts 232°
2026-04-12 10:16 39.42905 1.61977 30831 ft 422 kts 232°
2026-04-12 10:16 39.39369 1.55796 30833 ft 435 kts 231°
2026-04-12 10:17 39.35739 1.49489 30832 ft 438 kts 231°
2026-04-12 10:17 39.32100 1.43162 30830 ft 438 kts 231°
2026-04-12 10:18 39.28463 1.36850 30832 ft 438 kts 232°
2026-04-12 10:18 39.25431 1.31604 30827 ft 439 kts 232°
2026-04-12 10:19 39.21778 1.25303 30827 ft 438 kts 232°
2026-04-12 10:19 39.18129 1.19010 30822 ft 438 kts 232°
2026-04-12 10:20 39.14478 1.12727 30831 ft 438 kts 231°
2026-04-12 10:20 39.10819 1.06451 30834 ft 437 kts 231°
2026-04-12 10:21 39.07171 1.00191 30847 ft 437 kts 231°
2026-04-12 10:21 39.03517 0.93947 30852 ft 437 kts 231°
2026-04-12 10:22 38.99862 0.87711 30854 ft 436 kts 231°
2026-04-12 10:22 38.96213 0.81492 30852 ft 435 kts 231°
2026-04-12 10:23 38.92567 0.75285 30853 ft 435 kts 231°
2026-04-12 10:23 38.88923 0.69099 30852 ft 434 kts 231°
2026-04-12 10:24 38.85275 0.62918 30856 ft 434 kts 231°
2026-04-12 10:24 38.81658 0.56796 30853 ft 433 kts 231°
2026-04-12 10:25 38.78018 0.50644 30856 ft 433 kts 231°
2026-04-12 10:25 38.74374 0.44509 30852 ft 432 kts 231°
2026-04-12 10:26 38.70726 0.38379 30860 ft 432 kts 231°
2026-04-12 10:26 38.67083 0.32266 30855 ft 432 kts 231°
2026-04-12 10:27 38.63445 0.26151 30860 ft 432 kts 231°
2026-04-12 10:27 38.59804 0.20043 30860 ft 431 kts 231°
2026-04-12 10:28 38.56155 0.13961 30864 ft 431 kts 230°
2026-04-12 10:28 38.52511 0.07897 30859 ft 430 kts 230°
2026-04-12 10:29 38.48869 0.01841 30863 ft 429 kts 230°
2026-04-12 10:29 38.45223 -0.04198 30861 ft 429 kts 230°
2026-04-12 10:30 38.41582 -0.10224 30859 ft 429 kts 230°
2026-04-12 10:30 38.37946 -0.16252 30856 ft 428 kts 230°
2026-04-12 10:31 38.34311 -0.22264 30866 ft 428 kts 230°
2026-04-12 10:31 38.30664 -0.28261 30872 ft 428 kts 230°
2026-04-12 10:32 38.27024 -0.34247 30892 ft 427 kts 230°
2026-04-12 10:32 38.23390 -0.40228 30889 ft 426 kts 230°
2026-04-12 10:33 38.19760 -0.46180 30894 ft 426 kts 230°
2026-04-12 10:33 38.16123 -0.52119 30883 ft 425 kts 230°
2026-04-12 10:34 38.12492 -0.58043 30895 ft 425 kts 230°
2026-04-12 10:34 38.08917 -0.63954 30880 ft 424 kts 234°
2026-04-12 10:35 38.05830 -0.70339 30865 ft 424 kts 237°
2026-04-12 10:35 38.02819 -0.76760 30858 ft 424 kts 237°
2026-04-12 10:36 37.99818 -0.83158 30866 ft 424 kts 237°
2026-04-12 10:36 37.96782 -0.89584 30877 ft 425 kts 237°
2026-04-12 10:37 37.93740 -0.95990 30865 ft 424 kts 236°
2026-04-12 10:37 37.90700 -1.02380 30869 ft 424 kts 236°
2026-04-12 10:38 37.87652 -1.08769 30869 ft 424 kts 236°
2026-04-12 10:38 37.84603 -1.15153 30871 ft 424 kts 236°
2026-04-12 10:39 37.81541 -1.21540 30871 ft 424 kts 236°
2026-04-12 10:39 37.78484 -1.27927 30875 ft 425 kts 236°
2026-04-12 10:40 37.75420 -1.34322 30889 ft 426 kts 236°
2026-04-12 10:40 37.72351 -1.40719 30883 ft 426 kts 236°
2026-04-12 10:41 37.69274 -1.47111 30878 ft 426 kts 236°
2026-04-12 10:41 37.66188 -1.53492 30886 ft 426 kts 236°
2026-04-12 10:42 37.63092 -1.59876 30880 ft 427 kts 236°
2026-04-12 10:42 37.60007 -1.66233 30890 ft 428 kts 235°
2026-04-12 10:43 37.55352 -1.75831 30879 ft 428 kts 235°
2026-04-12 10:43 37.52236 -1.82228 30874 ft 428 kts 235°
2026-04-12 10:44 37.49107 -1.88629 30700 ft 431 kts 235°
2026-04-12 10:44 37.47528 -1.91846 30409 ft 432 kts 235°
2026-04-12 10:44 37.45949 -1.95067 30095 ft 433 kts 235°
2026-04-12 10:45 37.44366 -1.98305 29745 ft 435 kts 235°
2026-04-12 10:45 37.42781 -2.01547 29389 ft 436 kts 235°
2026-04-12 10:45 37.41189 -2.04802 29017 ft 437 kts 235°
2026-04-12 10:45 37.39587 -2.08067 28658 ft 439 kts 234°
2026-04-12 10:46 37.37979 -2.11330 28308 ft 440 kts 234°
2026-04-12 10:46 37.36366 -2.14602 27962 ft 441 kts 234°
2026-04-12 10:46 37.34749 -2.17883 27618 ft 442 kts 234°
2026-04-12 10:46 37.33127 -2.21173 27254 ft 443 kts 234°
2026-04-12 10:47 37.31499 -2.24475 26869 ft 445 kts 234°
2026-04-12 10:47 37.29869 -2.27777 26488 ft 446 kts 234°
2026-04-12 10:47 37.28233 -2.31091 26113 ft 448 kts 234°
2026-04-12 10:47 37.26587 -2.34419 25743 ft 449 kts 234°
2026-04-12 10:48 37.24934 -2.37749 25374 ft 450 kts 234°
2026-04-12 10:48 37.23275 -2.41084 25012 ft 451 kts 234°
2026-04-12 10:48 37.21609 -2.44430 24658 ft 453 kts 234°
2026-04-12 10:48 37.19955 -2.47759 24304 ft 444 kts 234°
2026-04-12 10:49 37.18492 -2.51121 23952 ft 437 kts 245°
2026-04-12 10:49 37.17728 -2.54771 23606 ft 432 kts 260°
2026-04-12 10:49 37.17759 -2.58504 23223 ft 428 kts 276°
2026-04-12 10:49 37.18441 -2.62109 22816 ft 421 kts 282°
2026-04-12 10:50 37.19190 -2.65618 22421 ft 413 kts 282°
2026-04-12 10:50 37.19927 -2.69073 22027 ft 407 kts 282°
2026-04-12 10:50 37.20647 -2.72474 21634 ft 401 kts 282°
2026-04-12 10:50 37.21352 -2.75829 21254 ft 395 kts 282°
2026-04-12 10:51 37.22044 -2.79143 20873 ft 390 kts 281°
2026-04-12 10:51 37.22728 -2.82431 20495 ft 385 kts 281°
2026-04-12 10:51 37.23405 -2.85706 20124 ft 398 kts 281°
2026-04-12 10:51 37.24105 -2.89112 19761 ft 407 kts 281°
2026-04-12 10:52 37.24816 -2.92550 19399 ft 407 kts 281°
2026-04-12 10:52 37.25529 -2.95977 19042 ft 405 kts 281°
2026-04-12 10:52 37.26240 -2.99393 18684 ft 403 kts 281°
2026-04-12 10:52 37.26944 -3.02786 18341 ft 401 kts 281°
2026-04-12 10:53 37.27643 -3.06168 17965 ft 399 kts 281°
2026-04-12 10:53 37.28337 -3.09536 17565 ft 398 kts 281°
2026-04-12 10:53 37.29028 -3.12894 17168 ft 396 kts 281°
2026-04-12 10:53 37.29715 -3.16237 16780 ft 395 kts 281°
2026-04-12 10:54 37.30400 -3.19566 16394 ft 393 kts 281°
2026-04-12 10:54 37.31079 -3.22883 16014 ft 391 kts 281°
2026-04-12 10:54 37.31755 -3.26192 15640 ft 391 kts 281°
2026-04-12 10:54 37.32428 -3.29495 15271 ft 389 kts 281°
2026-04-12 10:55 37.33097 -3.32784 14904 ft 388 kts 281°
2026-04-12 10:55 37.33758 -3.36028 14547 ft 387 kts 281°
2026-04-12 10:55 37.34421 -3.39276 14191 ft 381 kts 281°
2026-04-12 10:55 37.35073 -3.42482 13829 ft 375 kts 281°
2026-04-12 10:56 37.35712 -3.45623 13444 ft 368 kts 281°
2026-04-12 10:56 37.36341 -3.48723 13064 ft 364 kts 281°
2026-04-12 10:56 37.36956 -3.51763 12915 ft 352 kts 281°
2026-04-12 10:56 37.37553 -3.54717 12566 ft 344 kts 282°
2026-04-12 10:57 37.38130 -3.57579 12140 ft 331 kts 282°
2026-04-12 10:57 37.38502 -3.60365 11705 ft 317 kts 269°
2026-04-12 10:57 37.38316 -3.63068 11305 ft 306 kts 254°
2026-04-12 10:57 37.37625 -3.65564 11010 ft 300 kts 240°
2026-04-12 10:58 37.36523 -3.67750 10718 ft 294 kts 230°
2026-04-12 10:58 37.35321 -3.69819 10435 ft 293 kts 231°
2026-04-12 10:58 37.34130 -3.71875 10146 ft 293 kts 231°
2026-04-12 10:58 37.32930 -3.73945 9862 ft 293 kts 231°
2026-04-12 10:59 37.31734 -3.76010 9547 ft 292 kts 231°
2026-04-12 10:59 37.30544 -3.78067 9239 ft 290 kts 232°
2026-04-12 10:59 37.29359 -3.80114 8932 ft 288 kts 232°
2026-04-12 10:59 37.28184 -3.82142 8626 ft 286 kts 232°
2026-04-12 11:00 37.27017 -3.84151 8317 ft 284 kts 232°
2026-04-12 11:00 37.25859 -3.86145 8019 ft 282 kts 232°
2026-04-12 11:00 37.24708 -3.88121 7773 ft 279 kts 232°
2026-04-12 11:00 37.23560 -3.90091 7449 ft 279 kts 232°
2026-04-12 11:01 37.22423 -3.92045 7134 ft 276 kts 233°
2026-04-12 11:01 37.21299 -3.93976 6985 ft 273 kts 233°
2026-04-12 11:01 37.20242 -3.95951 7000 ft 274 kts 243°
2026-04-12 11:01 37.19708 -3.98228 6992 ft 268 kts 265°
2026-04-12 11:02 37.19833 -4.00482 6992 ft 255 kts 285°
2026-04-12 11:02 37.20527 -4.02507 6986 ft 253 kts 305°
2026-04-12 11:02 37.21594 -4.04226 6911 ft 255 kts 310°
2026-04-12 11:02 37.22705 -4.05960 6611 ft 254 kts 310°
2026-04-12 11:03 37.23029 -4.06468 6525 ft 253 kts 310°
2026-04-12 11:04 37.23491 -4.07202 6406 ft 252 kts 309°
2026-04-12 11:04 37.24224 -4.08365 6226 ft 250 kts 310°
2026-04-12 11:04 37.25620 -4.10559 6180 ft 237 kts 310°
2026-04-12 11:04 37.26648 -4.12170 6187 ft 236 kts 308°
2026-04-12 11:05 37.27282 -4.14039 6187 ft 237 kts 273°
2026-04-12 11:05 37.26848 -4.15994 6185 ft 237 kts 232°
2026-04-12 11:05 37.26051 -4.16963 6188 ft 237 kts 214°
2026-04-12 11:05 37.24629 -4.17950 6186 ft 237 kts 200°
2026-04-12 11:06 37.23043 -4.18469 6182 ft 235 kts 184°
2026-04-12 11:06 37.21449 -4.18322 6186 ft 232 kts 162°
2026-04-12 11:06 37.20029 -4.17411 6188 ft 230 kts 138°
2026-04-12 11:06 37.19032 -4.15866 6188 ft 228 kts 115°
2026-04-12 11:07 37.18610 -4.13992 6178 ft 218 kts 92°
2026-04-12 11:07 37.18589 -4.12156 6183 ft 204 kts 90°
2026-04-12 11:07 37.18579 -4.10427 6210 ft 194 kts 89°
2026-04-12 11:07 37.18593 -4.08742 6192 ft 192 kts 88°
2026-04-12 11:08 37.18609 -4.07112 6090 ft 184 kts 89°
2026-04-12 11:08 37.18626 -4.05513 5891 ft 182 kts 89°
2026-04-12 11:08 37.18642 -4.03923 5660 ft 182 kts 88°
2026-04-12 11:08 37.18657 -4.02338 5425 ft 182 kts 89°
2026-04-12 11:09 37.18673 -4.00745 5188 ft 182 kts 89°
2026-04-12 11:09 37.18688 -3.99154 4949 ft 183 kts 89°
2026-04-12 11:09 37.18703 -3.97557 4707 ft 183 kts 89°
2026-04-12 11:09 37.18718 -3.95960 4464 ft 183 kts 89°
2026-04-12 11:10 37.18733 -3.94366 4220 ft 183 kts 89°
2026-04-12 11:10 37.18747 -3.92775 3990 ft 183 kts 89°
2026-04-12 11:10 37.18761 -3.91229 3752 ft 170 kts 89°
2026-04-12 11:10 37.18773 -3.89827 3534 ft 154 kts 89°
2026-04-12 11:11 37.18785 -3.88523 3336 ft 147 kts 88°
2026-04-12 11:11 37.18796 -3.87259 3144 ft 144 kts 88°
2026-04-12 11:11 37.18807 -3.86006 2969 ft 143 kts 87°
2026-04-12 11:11 37.18824 -3.84759 2815 ft 144 kts 86°
2026-04-12 11:12 37.18838 -3.83503 2594 ft 144 kts 88°
2026-04-12 11:12 37.18849 -3.82245 2385 ft 144 kts 90°
2026-04-12 11:12 37.18853 -3.80986 2151 ft 144 kts 89°
2026-04-12 11:12 37.18862 -3.79723 1960 ft 146 kts 89°
2026-04-12 11:13 37.18872 -3.78489 1874 ft 130 kts 90°
2026-04-12 11:13 37.18876 -3.77687 1866 ft 56 kts 89°
2026-04-12 11:13 37.18871 -3.77256 1868 ft 36 kts 100°
2026-04-12 11:13 37.18814 -3.77034 1867 ft 13 kts 118°
2026-04-12 11:14 37.18773 -3.76951 1865 ft 10 kts 138°
2026-04-12 11:14 37.18720 -3.76968 1865 ft 8 kts 230°
2026-04-12 11:14 37.18712 -3.77020 1866 ft 0 kts 270°
2026-04-12 11:15 37.18712 -3.77023 1866 ft 3 kts 269°
2026-04-12 11:15 37.18710 -3.77117 1866 ft 16 kts 269°
2026-04-12 11:15 37.18710 -3.77258 1867 ft 16 kts 269°
2026-04-12 11:16 37.18709 -3.77391 1867 ft 13 kts 270°
2026-04-12 11:16 37.18692 -3.77485 1867 ft 9 kts 218°
2026-04-12 11:16 37.18632 -3.77493 1869 ft 8 kts 175°
2026-04-12 11:16 37.18588 -3.77491 1870 ft 5 kts 185°
2026-04-12 11:17 37.18570 -3.77506 1868 ft 1 kts 229°
2026-04-12 11:17 37.18568 -3.77534 1871 ft 3 kts 265°
2026-04-12 11:17 37.18568 -3.77555 1871 ft 1 kts 270°